| time (UTC) | temp C | wind direction | speed KPH | gust KPH | rain 1hr cm | rain 24hr cm | rain mn cm | humidity % | barometer mb |
| 20260505041512 | 11 | 231 | 4.8 | 19.3 | 0.00 | 0.00 | 0.00 | 88 | 1010.1 |
| 20260505040120 | 11 | 271 | 9.7 | 22.5 | 0.00 | 0.00 | 0.00 | 87 | 1010.1 |
| 20260505034603 | 11 | 224 | 8.0 | 12.9 | 0.00 | 0.00 | 0.00 | 85 | 1010.0 |
| 20260505033103 | 12 | 265 | 8.0 | 19.3 | 0.00 | 0.00 | 0.00 | 84 | 1009.8 |
| 20260505031511 | 12 | 220 | 8.0 | 22.5 | 0.00 | 0.00 | 0.00 | 82 | 1009.7 |
| 20260505030111 | 13 | 220 | 6.4 | 20.9 | 0.00 | 0.00 | 0.00 | 80 | 1009.6 |
| 20260505024617 | 13 | 217 | 4.8 | 14.5 | 0.00 | 0.00 | 0.00 | 77 | 1009.5 |
| 20260505023118 | 14 | 237 | 8.0 | 17.7 | 0.00 | 0.00 | 0.00 | 75 | 1009.4 |
| 20260505021503 | 16 | 206 | 8.0 | 16.1 | 0.00 | 0.00 | 0.00 | 69 | 1009.5 |
| 20260505020117 | 16 | 213 | 6.4 | 14.5 | 0.00 | 0.00 | 0.00 | 69 | 1009.6 |
| 20260505014600 | 16 | 231 | 4.8 | 17.7 | 0.00 | 0.00 | 0.00 | 69 | 1009.8 |
| 20260505013103 | 16 | 205 | 8.0 | 20.9 | 0.00 | 0.00 | 0.00 | 69 | 1009.9 |
| 20260505011503 | 17 | 191 | 9.7 | 22.5 | 0.00 | 0.00 | 0.00 | 65 | 1010.0 |
| 20260505010114 | 17 | 193 | 8.0 | 20.9 | 0.00 | 0.00 | 0.00 | 64 | 1010.0 |
| 20260505004558 | 18 | 224 | 12.9 | 25.7 | 0.00 | 0.00 | 0.00 | 62 | 1009.9 |
| 20260505003124 | 17 | 221 | 8.0 | 19.3 | 0.00 | 0.00 | 0.00 | 63 | 1009.9 |
| 20260505001501 | 18 | 211 | 9.7 | 25.7 | 0.00 | 0.00 | 0.00 | 64 | 1009.8 |
| 20260505000109 | 17 | 221 | 9.7 | 20.9 | 0.00 | 0.00 | 0.00 | 64 | 1009.9 |
| 20260504234554 | 18 | 231 | 6.4 | 20.9 | 0.00 | 0.00 | 0.00 | 65 | 1010.0 |
| 20260504233103 | 18 | 271 | 8.0 | 25.7 | 0.00 | 0.00 | 0.00 | 65 | 1009.9 |
| 20260504231600 | 18 | 274 | 8.0 | 25.7 | 0.00 | 0.00 | 0.00 | 67 | 1010.1 |
| 20260504230116 | 18 | 256 | 6.4 | 17.7 | 0.00 | 0.00 | 0.00 | 67 | 1010.1 |
| 20260504224601 | 17 | 227 | 9.7 | 22.5 | 0.00 | 0.00 | 0.00 | 68 | 1010.4 |
| 20260504223117 | 17 | 210 | 8.0 | 19.3 | 0.00 | 0.00 | 0.00 | 69 | 1010.4 |
| 20260504221502 | 17 | 231 | 6.4 | 22.5 | 0.00 | 0.00 | 0.00 | 71 | 1010.5 |
| 20260504220110 | 17 | 197 | 12.9 | 22.5 | 0.00 | 0.00 | 0.00 | 68 | 1010.6 |
| 20260504214557 | 17 | 250 | 6.4 | 19.3 | 0.00 | 0.00 | 0.00 | 70 | 1010.8 |
| 20260504213103 | 16 | 220 | 8.0 | 20.9 | 0.00 | 0.00 | 0.00 | 69 | 1010.9 |
| 20260504211505 | 17 | 204 | 8.0 | 16.1 | 0.00 | 0.00 | 0.00 | 68 | 1010.9 |
| 20260504210113 | 17 | 238 | 8.0 | 19.3 | 0.00 | 0.00 | 0.00 | 68 | 1010.9 |
| 20260504204603 | 17 | 188 | 8.0 | 17.7 | 0.00 | 0.00 | 0.00 | 67 | 1010.8 |
| 20260504203103 | 18 | 236 | 3.2 | 17.7 | 0.00 | 0.00 | 0.00 | 64 | 1010.9 |
| 20260504201502 | 18 | 202 | 3.2 | 11.3 | 0.00 | 0.00 | 0.00 | 65 | 1010.8 |
| 20260504200110 | 18 | 185 | 6.4 | 11.3 | 0.00 | 0.00 | 0.00 | 64 | 1010.9 |
| 20260504194557 | 18 | 191 | 4.8 | 11.3 | 0.00 | 0.00 | 0.00 | 64 | 1010.9 |
| 20260504193100 | 18 | 248 | 3.2 | 11.3 | 0.00 | 0.00 | 0.00 | 61 | 1010.9 |
| 20260504191626 | 21 | 240 | 6.4 | 14.5 | 0.00 | 0.00 | 0.00 | 51 | 1010.8 |
| 20260504184604 | 22 | 208 | 4.8 | 8.0 | 0.00 | 0.00 | 0.00 | 48 | 1010.6 |
| 20260504183002 | 22 | 191 | 1.6 | 9.7 | 0.00 | 0.00 | 0.00 | 50 | 1010.8 |
| 20260504181503 | 21 | 238 | 3.2 | 8.0 | 0.00 | 0.00 | 0.00 | 50 | 1011.0 |
| 20260504180111 | 21 | 222 | 6.4 | 11.3 | 0.00 | 0.00 | 0.00 | 49 | 1010.9 |
| 20260504174558 | 21 | 258 | 1.6 | 11.3 | 0.00 | 0.00 | 0.00 | 52 | 1010.9 |
| 20260504173101 | 21 | 225 | 1.6 | 6.4 | 0.00 | 0.00 | 0.00 | 52 | 1010.9 |
| 20260504171508 | 21 | 247 | 3.2 | 8.0 | 0.00 | 0.00 | 0.00 | 50 | 1011.0 |
| 20260504170115 | 21 | 247 | 3.2 | 12.9 | 0.00 | 0.00 | 0.00 | 50 | 1011.0 |
| 20260504160112 | 21 | 230 | 0.0 | 6.4 | 0.00 | 0.00 | 0.00 | 49 | 1011.0 |
| 20260504150104 | 19 | 200 | 0.0 | 3.2 | 0.00 | 0.00 | 0.00 | 50 | 1010.5 |
| 20260504120124 | 6 | 200 | 0.0 | 3.2 | 0.00 | 0.00 | 0.00 | 88 | 1009.8 |
| 20260504081543 | 15 | 172 | 3.2 | 6.4 | 0.00 | 0.00 | 0.00 | 56 | 1009.1 |
| 20260504060112 | 10 | 197 | 0.0 | 0.0 | 0.00 | 0.00 | 0.00 | 82 | 1009.8 |
| 20260504050110 | 13 | 197 | 0.0 | 3.2 | 0.00 | 0.00 | 0.00 | 74 | 1009.8 |
| 20260504044555 | 13 | 197 | 0.0 | 3.2 | 0.00 | 0.00 | 0.00 | 70 | 1009.8 |
| 20260504043114 | 15 | 242 | 0.0 | 3.2 | 0.00 | 0.00 | 0.00 | 63 | 1009.7 |